#timestamp,LO_Frequency,Hit 
1502136015.4,286046998.1,N
1502136035.2,286046999.4,N
1502136055.0,286046999.6,N
1502136056.0,286046999.6,N
1502136075.8,286046995.4,N
1502136095.6,286046995.4,N
1502136115.4,286046999.6,N
1502136135.3,286046999.6,N
1502136155.1,286046999.3,N
1502136175.8,286046996.2,N
1502136195.7,286046995.8,N
1502136215.5,286046993.3,N
1502136235.3,286046995.7,N
1502136255.2,286046997.1,N
1502136275.9,286046997.5,N
1502136295.7,286046995.0,N
1502136315.6,286046995.6,N
1502136335.4,286046993.6,N
1502136355.2,286046994.4,N
1502136375.1,286046994.4,N
1502136376.0,286046994.4,N
1502136395.8,286046993.8,N
1502136415.6,286046992.2,N
1502136435.5,286046991.8,N
1502136455.3,286046992.5,N
1502136475.1,286046992.3,N
1502136495.9,286046992.4,N
1502136515.7,286046993.8,N
1502136535.5,286046995.1,N
1502136555.3,286046995.3,N
1502136575.2,286046996.0,N
1502136595.0,286046994.9,N
1502136595.9,286046994.9,N
1502136615.7,286046995.2,N
1502136635.6,286046992.1,P
1502136655.4,286046997.1,N
1502136675.3,286047001.1,N
1502136695.1,286046999.7,N
1502136715.8,286046996.5,N
1502136735.7,286046997.6,N
1502136755.5,286046997.4,N
1502136775.3,286046999.5,N
1502136795.2,286046998.1,N
1502136815.9,286047001.1,N
1502136835.7,286047000.0,N
1502136855.6,286046998.1,N
1502136875.4,286047001.1,N
1502136895.2,286046998.7,N
1502136915.0,286046999.3,N
1502136915.9,286046999.3,N
1502136935.8,286046996.7,N
1502136955.6,286046997.3,N
1502136975.4,286046999.4,N
1502136995.3,286046998.4,N
1502137015.1,286046998.9,N
1502137035.8,286047000.3,N
1502137055.7,286047002.4,N
1502137075.5,286047000.2,N
1502137095.3,286047002.7,N
1502137115.2,286047002.7,N
1502137135.9,286047000.2,N
1502137155.7,286047000.6,N
1502137175.6,286047000.7,N
1502137195.4,286047001.1,N
1502137215.2,286046998.7,N
1502137235.0,286046996.6,N
1502137235.9,286046996.6,N
1502137255.8,286046999.1,N
1502137275.6,286047001.3,N
1502137295.4,286047002.1,N
1502137315.3,286047002.0,N
1502137335.1,286047004.4,N
1502137355.8,286047003.1,N
1502137375.7,286047003.2,N
1502137395.5,286047003.2,N
1502137415.3,286047004.4,N
1502137435.2,286047004.2,N
1502137455.9,286047004.4,N
1502137475.7,286047001.6,N
1502137495.6,286047006.9,N
1502137515.4,286047006.6,N
1502137535.2,286047008.6,P
1502137555.1,286047004.7,N
1502137556.0,286047004.7,N
1502137575.8,286047005.6,N
1502137595.6,286047007.0,P
1502137615.5,286047004.0,P
1502137635.3,286047004.0,P
1502137655.1,286047001.0,N
1502137675.9,286047000.9,N
1502137695.7,286046998.7,N
1502137715.5,286047001.2,N
1502137735.4,286047002.7,N
1502137755.2,286046999.9,N
1502137775.0,286047000.9,N
1502137775.9,286047000.9,N
1502137795.8,286046998.5,N
1502137815.6,286047001.2,N
1502137835.4,286046999.8,N
1502137855.3,286047001.3,N
1502137875.1,286047004.4,N
1502137876.0,286047004.4,N
1502137895.8,286046998.1,N
1502137915.6,286046996.9,N
1502137935.5,286046998.1,N
1502137955.3,286047000.0,N
1502137975.1,286047000.8,N
1502137995.9,286047000.4,N
1502138015.7,286046998.4,N
1502138035.5,286047002.7,N
1502138055.4,286047001.7,N
1502138075.2,286046999.9,N
1502138095.0,286047001.9,N
1502138095.9,286047001.9,N
1502138115.8,286047002.3,N
1502138135.6,286046998.1,N
1502138155.4,286047000.5,N
1502138175.3,286047002.5,N
1502138195.1,286047000.1,N
1502138196.0,286047000.1,N
1502138215.8,286047002.7,N
1502138235.7,286047002.0,N
1502138255.5,286047002.2,N
1502138275.3,286046999.8,N
1502138295.1,286047004.3,N
1502138315.9,286047002.3,N
1502138335.7,286047000.7,N
1502138355.5,286046999.1,N
1502138375.4,286046999.1,N
1502138395.2,286046999.0,N
1502138415.0,286046999.0,N
1502138415.9,286046999.0,N
1502138435.8,286046999.3,N
1502138455.6,286046998.4,N
1502138475.4,286046999.7,N
1502138495.3,286047000.5,N
1502138515.1,286047000.2,N
1502138516.0,286047000.2,N
1502138535.8,286046999.7,N
1502138555.7,286047002.3,N
1502138575.5,286047001.6,N
1502138595.3,286047002.5,N
1502138615.2,286047000.2,N
1502138635.9,286046999.8,N
1502138655.7,286047001.3,N
1502138675.6,286047000.1,N
1502138695.4,286047002.8,N
1502138715.2,286047002.7,N
1502138735.0,286046999.9,N
1502138736.0,286046999.9,N
1502138755.8,286047000.0,N
1502138775.6,286047000.0,N
1502138795.4,286047000.4,N
1502138815.3,286047001.2,N
1502138835.1,286046998.3,N
1502138855.8,286046998.9,N
1502138875.7,286047005.2,P
1502138895.5,286047007.2,N
1502138915.3,286047005.2,N
1502138935.2,286047007.6,N
1502138955.0,286047006.9,N
1502138955.9,286047006.9,N
1502138975.8,286047007.2,P
1502138995.6,286047000.2,N
1502139015.4,286046998.5,N
1502139035.2,286047001.2,N
1502139055.1,286046999.1,N
1502139056.0,286046999.1,N
1502139075.8,286046995.0,N
1502139095.6,286046995.5,N
1502139115.5,286046995.3,N
1502139135.3,286046997.5,N
1502139155.1,286046997.7,N
1502139175.9,286047001.2,N
1502139195.7,286046999.1,N
1502139215.5,286046999.6,N
1502139235.4,286046998.4,N
1502139255.2,286047000.9,N
1502139275.0,286047001.1,N
1502139275.9,286047001.1,N
1502139295.8,286046999.5,N
1502139315.6,286046996.9,N
1502139335.4,286047001.2,N
1502139355.3,286046997.5,N
1502139375.1,286046999.2,N
1502139376.0,286046999.2,N
1502139395.8,286046995.3,N
1502139415.6,286046997.4,N
1502139435.5,286046998.0,N
1502139455.3,286046995.7,N
1502139475.1,286046993.4,N
1502139495.9,286046992.0,N
1502139515.7,286046989.7,P
1502139535.5,286046986.1,P
1502139555.4,286046991.4,N
1502139575.2,286046992.2,N
1502139595.0,286046995.7,N
1502139595.9,286046995.7,N
